New Orleans, LA

1:06 AM CDT on April 24, 2017 (GMT -0500)
New Orleans International

Weather History for KMSY - May, 2013

Change the Weather History Date:

Monday, May 13, 2013

  Actual Average Record
Temperature  
Mean Temperature 70 °F -  
Max Temperature 78 °F 83 °F 90 °F (1962)
Min Temperature 61 °F 64 °F 41 °F (1960)
Cooling Degree Days 4    
Growing Degree Days 20 (Base 50)    
Moisture  
Dew Point 48 °F    
Average Humidity 49    
Maximum Humidity 70    
Minimum Humidity 24    
Precipitation  
Precipitation 0.00 in - - ()
Sea Level Pressure  
Sea Level Pressure 30.24 in    
Wind  
Wind Speed 10 mph (ENE)    
Max Wind Speed 16 mph    
Max Gust Speed 22 mph    
Visibility 10 miles    
Events      
Averages and records for this station are not official NWS values.
T = Trace of Precipitation, MM = Missing Value Source: NWS Daily Summary

Daily Weather History Graph

Daily Weather History Graph

Search for Another Location

Airport or City:

Trip Planner

Search our weather history database for the weather conditions in past years. The results will help you decide how hot, cold, wet, or windy it might be!

Date:

Astronomy

May. 13, 2013 Rise Set
Actual Time 6:08 AM CDT 7:46 PM CDT
Civil Twilight 5:42 AM CDT 8:12 PM CDT
Nautical Twilight 5:11 AM CDT 8:43 PM CDT
Astronomical Twilight 4:38 AM CDT 9:16 PM CDT
Moon 8:56 AM CDT (5/13) 10:55 PM CDT (5/13)
Length of Visible Light 14h 29m
Length of Day
13h 37m
Waxing Crescent, 12% of the Moon is Illuminated
May 13
Waxing Crescent
May 17
First Quarter
May 24
Full
May 31
Last Quarter
Jun 8
New

Hourly Weather History & Observations

Time (CDT) Temp. Dew Point Humidity Pressure Visibility Wind Dir Wind Speed Gust Speed Precip Events Conditions
12:53 AM 66.0 °F 53.1 °F 63% 30.17 in 10.0 mi North 8.1 mph - N/A   Partly Cloudy
1:53 AM 64.9 °F 48.9 °F 56% 30.17 in 10.0 mi NNE 10.4 mph - N/A   Clear
2:53 AM 63.0 °F 48.0 °F 58% 30.18 in 10.0 mi NNE 15.0 mph - N/A   Clear
3:53 AM 63.0 °F 48.0 °F 58% 30.18 in 10.0 mi NNE 12.7 mph - N/A   Clear
4:53 AM 63.0 °F 48.0 °F 58% 30.20 in 10.0 mi NE 11.5 mph - N/A   Scattered Clouds
5:53 AM 62.1 °F 48.0 °F 60% 30.22 in 10.0 mi NE 11.5 mph - N/A   Mostly Cloudy
6:53 AM 63.0 °F 46.9 °F 56% 30.24 in 10.0 mi ENE 12.7 mph - N/A   Mostly Cloudy
7:53 AM 64.0 °F 48.0 °F 56% 30.27 in 10.0 mi ENE 12.7 mph - N/A   Mostly Cloudy
8:53 AM 66.0 °F 46.9 °F 50% 30.29 in 10.0 mi ENE 16.1 mph 21.9 mph N/A   Mostly Cloudy
9:53 AM 69.1 °F 46.0 °F 44% 30.31 in 10.0 mi East 10.4 mph - N/A   Mostly Cloudy
10:53 AM 71.1 °F 44.1 °F 38% 30.32 in 10.0 mi Variable 4.6 mph - N/A   Mostly Cloudy
11:53 AM 72.0 °F 45.0 °F 38% 30.30 in 10.0 mi NE 10.4 mph - N/A   Mostly Cloudy
12:53 PM 73.0 °F 44.1 °F 35% 30.29 in 10.0 mi NE 10.4 mph - N/A   Scattered Clouds
1:53 PM 75.0 °F 44.1 °F 33% 30.28 in 10.0 mi NE 8.1 mph - N/A   Scattered Clouds
3:53 PM 78.1 °F 43.0 °F 29% 30.24 in 10.0 mi NE 4.6 mph - N/A   Partly Cloudy
4:53 PM 78.1 °F 45.0 °F 31% 30.23 in 10.0 mi NNE 5.8 mph - N/A   Partly Cloudy
5:53 PM 77.0 °F 44.1 °F 31% 30.22 in 10.0 mi Variable 5.8 mph - N/A   Partly Cloudy
6:53 PM 73.4 °F 50.0 °F 44% 30.21 in 10.0 mi South 8.1 mph - N/A   Partly Cloudy
7:53 PM 68.0 °F 51.1 °F 55% 30.23 in 10.0 mi South 6.9 mph - N/A   Partly Cloudy
8:53 PM 66.0 °F 53.1 °F 63% 30.23 in 10.0 mi South 4.6 mph - N/A   Clear
9:53 PM 66.0 °F 53.1 °F 63% 30.24 in 10.0 mi South 5.8 mph - N/A   Clear
10:53 PM 64.0 °F 53.1 °F 67% 30.25 in 10.0 mi South 5.8 mph - N/A   Clear
11:53 PM 63.0 °F 53.1 °F 70% 30.24 in 10.0 mi South 3.5 mph - N/A   Clear